Location: Morrison Observatory
(41.7012°N, 86.2315°W)
Time: 10:54:24
(UTC-05:00)

Daily predictions for brighter satellites

Satellite Brightness Start Highest point End
(mag) Time Altitude Azimuth Time Altitude Azimuth Time Altitude Azimuth
AQUARIUS 4.2 18:12:53 10° SSE 18:17:22 90° ESE 18:21:55 10° NNW
Cosmos 2366 rocket 4.2 18:12:15 10° N 18:18:16 48° ENE 18:24:11 10° SSE
Cosmos 44 Rocket 3.7 18:14:10 10° S 18:18:34 42° ESE 18:23:03 10° NE
Cosmos 1766 Rocket 4.1 18:14:49 10° SSE 18:18:45 36° E 18:22:43 10° NNE
IRAS Rocket 4.2 18:13:47 10° SSE 18:19:18 76° ENE 18:24:54 10° NNW
Cosmos 1777 Rocket 4.4 18:17:22 10° N 18:22:19 41° ENE 18:27:16 10° SE
FENGYUN 3A 4.1 18:19:47 10° SE 18:24:40 38° ENE 18:29:36 10° N
SL-14 R/B 3.2 18:22:40 10° S 18:26:37 78° E 18:30:35 10° N
SPOT 3 Rocket 4.2 18:23:25 10° SE 18:27:57 33° ENE 18:32:31 10° N
Cosmos 1726 3.1 18:25:26 10° NNW 18:28:59 51° W 18:32:32 10° S
Cosmos 1484 Rocket 3.9 18:25:22 10° S 18:29:01 47° W 18:32:40 10° NNW
Okean 3 Rocket 3.7 18:25:28 10° S 18:30:00 88° W 18:34:33 10° N
SKYMED 2 3.9 18:27:16 10° NNE 18:31:27 45° E 18:35:36 10° S
Cosmos 1151 Rocket 4.3 18:30:37 10° NNE 18:33:50 19° ENE 18:37:01 10° ESE
Meteor 1-28 Rocket 3.9 18:30:13 10° N 18:33:59 58° WNW 18:37:41 10° SSW
METEOR-M 4.1 18:30:20 10° SSE 18:35:40 76° ENE 18:41:02 10° N
ATLAS 2AS CENTAUR R/B 4.3 18:28:39 10° NW 18:35:57 44° WSW 18:42:42 10° S
Cosmos 2058 4.1 18:33:21 10° SE 18:36:38 23° E 18:39:56 10° NE
Meteor 2-10 4.5 18:32:31 10° NNW 18:37:32 65° W 18:42:36 10° S
Cosmos 968 Rocket 4.2 18:32:41 10° NNW 18:37:45 59° WSW 18:42:45 10° S
YAOGAN 1 2.5 18:33:34 10° SSE 18:37:53 75° ENE 18:42:13 10° N
ALOS 2.4 18:34:12 10° SSE 18:38:41 49° ENE 18:43:12 10° N
Geosat 4.2 18:33:59 10° NNE 18:39:01 76° WNW 18:44:02 10° SW
Cosmos 2221 4.0 18:41:24 10° NNW 18:45:31 41° W 18:49:37 10° SSW
MONITOR-E 4.1 18:45:50 10° SSE 18:48:49 56° ENE 18:51:49 10° N
Cosmos 864 Rocket 4.5 18:44:41 10° N 18:51:04 82° E 18:57:22 10° S
SeaSat 1 4.4 18:46:47 10° S 18:51:14 34° WSW 18:55:42 10° NW
Lacrosse 5 3.7 18:49:05 10° SE 18:51:15 13° ESE 18:52:13 12° ESE
CZ-4 R/B 2.5 18:47:15 10° S 18:51:22 52° W 18:55:32 10° NNW
Meteor 1-27 4.3 18:48:00 10° N 18:53:38 54° ENE 18:59:17 10° SSE
Meteor 1-11 4.2 18:50:04 10° S 18:55:34 63° E 19:01:10 10° NNE
TSX-5 4.1 18:52:38 10° SW 18:55:44 53° WNW 18:59:18 10° NNE
H-2A R/B 3.5 18:53:28 10° SE 18:56:50 30° ENE 19:00:15 10° N
Cosmos 1346 Rocket 2.7 18:53:06 10° N 18:56:59 60° ENE 19:00:48 10° SSE
COSMOS 2406 3.4 18:52:15 10° S 18:57:44 50° ESE 19:03:09 10° NE
CZ-4C R/B 3.8 18:55:33 10° SE 18:57:48 13° ESE 18:57:48 13° ESE
NOSS 3-4 (A) 3.8 18:52:05 10° NW 18:59:10 87° NE 19:06:48 10° SE
NOSS 3-4 (C) 3.8 18:52:11 10° NW 18:59:17 86° NE 19:06:54 10° SE
Cosmos 2151 3.4 18:57:12 10° SSE 19:01:10 40° E 19:05:12 10° NNE
Cosmos 1315 Rocket 3.5 18:58:28 10° SSW 19:02:19 55° WNW 19:06:11 10° N
Cosmos 1455 2.6 18:58:41 10° N 19:02:20 39° ENE 19:05:56 10° SSE
Cosmos 2098 Rocket 3.8 18:58:45 10° N 19:04:10 66° E 19:10:51 10° SSE
Cosmos 1408 Rocket 3.8 19:04:23 10° SSW 19:08:39 71° W 19:12:58 10° N
Cosmos 1515 Rocket 3.6 19:05:26 10° N 19:09:41 50° E 19:13:52 10° SSE
FengYun 1-2 T 4.4 19:06:43 10° SE 19:12:06 49° ENE 19:17:29 10° N
Envisat 4.3 19:13:56 20° NE 19:13:56 20° NE 19:16:31 10° NNE
GEOS 3 Rocket 4.4 19:11:16 24° E 19:13:25 32° NE 19:18:09 10° NNW
DMSP B5D1-3 4.4 19:08:54 10° NNE 19:14:01 73° ESE 19:19:06 10° S
Cosmos 1697 Rocket 4.5 19:12:22 10° NNE 19:14:14 14° NNE 19:14:14 14° NNE
Cosmos 1626 2.8 19:12:39 10° SSW 19:16:18 56° W 19:19:58 10° N
Cosmos 1570 Rocket 4.3 19:13:25 10° S 19:18:27 45° ESE 19:21:26 23° NE
COSMO-SKYMED 1 3.4 19:15:16 10° N 19:19:30 52° WNW 19:23:43 10° SSW
Cosmos 44 4.2 19:17:03 10° WSW 19:21:08 40° NW 19:24:51 13° NNE
Cosmos 1500 Rocket 3.6 19:17:47 10° S 19:22:10 59° E 19:26:10 12° NNE
EO 1 Del DPAF 3.4 19:20:45 10° N 19:24:35 72° WNW 19:28:23 10° SSW
Cosmos 371 Rocket 3.2 19:19:52 10° S 19:24:36 65° ESE 19:27:38 22° NNE
NOAA 12 4.4 19:21:55 10° S 19:27:07 67° WSW 19:32:22 10° NNW
Meteor 2-15 4.4 19:24:20 10° S 19:30:21 63° E 19:36:22 10° NNE
Tiangong 1 2.4 19:29:15 10° W 19:31:21 24° SSW 19:31:24 24° SSW
ERS-2 2.6 19:33:32 10° S 19:37:10 63° WSW 19:40:51 10° NNW
Cosmos 1743 Rocket 3.7 19:32:52 10° SSW 19:37:13 72° W 19:41:34 10° N
Cosmos 2228 Rocket 3.3 19:33:45 10° NNW 19:38:20 73° W 19:42:53 10° S
Cosmos 1328 Rocket 4.4 19:35:42 10° NNW 19:39:55 50° W 19:44:06 10° SSW
Cosmos 1703 4.5 19:41:00 10° SSW 19:44:47 42° WNW 19:48:35 10° N
Thor Agena Rocket 3.5 19:44:12 38° NE 19:45:59 58° E 19:51:06 10° S
ERBS 4.1 19:47:12 10° NW 19:48:43 23° NNW 19:48:43 23° NNW
Meteor 2-15 Rocket 4.3 19:51:35 10° S 19:57:42 86° E 20:03:50 10° N
Cosmos 909 Rocket 4.1 19:51:18 10° NW 19:58:02 77° WSW 20:04:07 11° SSE
Cosmos 1821 Rocket 4.2 20:03:12 10° NNW 20:09:19 69° W 20:15:30 10° S
Cosmos 1535 Rocket 4.5 20:04:37 10° N 20:10:46 79° W 20:16:51 10° S
Cosmos 1980 Rocket 4.3 20:10:09 10° N 20:10:53 13° N 20:10:53 13° N
Cosmos 2082 Rocket 4.0 20:18:11 10° S 20:19:35 18° S 20:19:35 18° S
Lacrosse 5 3.0 20:28:23 10° SW 20:31:29 38° SW 20:31:29 38° SW
Cosmos 1898 Rocket 4.1 20:29:28 10° NNW 20:33:42 52° NW 20:33:42 52° NW
CZ-4C R/B 3.3 20:40:13 10° SW 20:43:03 35° SW 20:43:03 35° SW
